Time,TemperatureF,DewpointF,PressureIn,WindDirection,WindDirectionDegrees,WindSpeedMPH,WindSpeedGustMPH,Humidity,HourlyPrecipIn,Conditions,Clouds,dailyrainin,SoftwareType,DateUTC
2013-03-12 00:02:00,30.1,27.0,29.80,ESE,120,4.0,7.0,88,0.00,,,0.02,Wunderground v.1.15,2013-03-12 05:02:00,
2013-03-12 00:07:00,30.1,26.4,29.80,SE,131,1.0,7.0,86,0.00,,,0.02,Wunderground v.1.15,2013-03-12 05:07:00,
2013-03-12 00:12:00,30.0,26.3,29.80,ESE,120,4.0,6.0,86,0.00,,,0.02,Wunderground v.1.15,2013-03-12 05:12:00,
2013-03-12 00:17:00,29.9,25.9,29.80,SE,145,2.0,6.0,85,0.00,,,0.02,Wunderground v.1.15,2013-03-12 05:17:00,
2013-03-12 00:22:00,29.9,25.9,29.80,ESE,107,2.0,5.0,85,0.00,,,0.02,Wunderground v.1.15,2013-03-12 05:22:00,
2013-03-12 00:27:00,29.8,25.8,29.80,SE,124,0.0,6.0,85,0.00,,,0.02,Wunderground v.1.15,2013-03-12 05:27:00,
2013-03-12 00:32:00,29.8,25.8,29.80,SE,143,1.0,5.0,85,0.00,,,0.02,Wunderground v.1.15,2013-03-12 05:32:00,
2013-03-12 00:37:00,29.8,26.1,29.80,ESE,122,1.0,5.0,86,0.00,,,0.02,Wunderground v.1.15,2013-03-12 05:37:00,
2013-03-12 00:42:00,29.8,26.1,29.80,South,187,0.0,2.0,86,0.00,,,0.02,Wunderground v.1.15,2013-03-12 05:42:00,
2013-03-12 00:48:00,29.8,26.1,29.81,East,94,2.0,3.0,86,0.00,,,0.02,Wunderground v.1.15,2013-03-12 05:48:00,
2013-03-12 00:52:00,29.7,26.0,29.81,ESE,106,2.0,4.0,86,0.00,,,0.02,Wunderground v.1.15,2013-03-12 05:52:00,
2013-03-12 00:58:00,29.7,26.3,29.81,SE,138,0.0,4.0,87,0.00,,,0.02,Wunderground v.1.15,2013-03-12 05:58:00,
2013-03-12 01:03:00,29.7,26.0,29.81,ESE,117,2.0,2.0,86,0.00,,,0.00,Wunderground v.1.15,2013-03-12 06:03:00,
2013-03-12 01:09:00,29.7,26.0,29.81,SE,145,0.0,-999.0,87,-99.99,,,0.00,weatherlink.com 1.10,2013-03-12 06:09:00,
2013-03-12 01:14:00,29.7,26.3,29.81,East,101,1.0,3.0,87,0.00,,,0.00,Wunderground v.1.15,2013-03-12 06:14:00,
2013-03-12 01:19:00,29.7,26.0,29.82,ESE,112,5.0,5.0,86,0.00,,,0.00,Wunderground v.1.15,2013-03-12 06:19:00,
2013-03-12 01:25:00,29.7,26.0,29.82,ESE,112,0.0,3.0,86,0.00,,,0.00,Wunderground v.1.15,2013-03-12 06:25:00,
2013-03-12 01:31:00,29.7,26.3,29.82,East,101,1.0,2.0,87,0.00,,,0.00,Wunderground v.1.15,2013-03-12 06:31:00,
2013-03-12 01:37:00,29.6,26.2,29.82,ESE,119,1.0,3.0,87,0.00,,,0.00,Wunderground v.1.15,2013-03-12 06:37:00,
2013-03-12 01:43:00,29.6,26.5,29.82,ESE,122,3.0,3.0,88,0.00,,,0.00,Wunderground v.1.15,2013-03-12 06:43:00,
2013-03-12 01:48:00,29.4,26.3,29.82,ESE,121,3.0,4.0,88,0.00,,,0.00,Wunderground v.1.15,2013-03-12 06:48:00,
2013-03-12 01:53:00,29.3,26.5,29.83,ESE,120,1.0,4.0,89,0.00,,,0.00,Wunderground v.1.15,2013-03-12 06:53:00,
2013-03-12 01:59:00,29.2,26.4,29.83,SE,124,1.0,4.0,89,0.00,,,0.00,Wunderground v.1.15,2013-03-12 06:59:00,
2013-03-12 02:04:00,29.1,26.5,29.83,East,99,1.0,4.0,90,0.00,,,0.00,Wunderground v.1.15,2013-03-12 07:04:00,
2013-03-12 02:10:00,29.0,26.4,29.83,ESE,114,0.0,2.0,90,0.00,,,0.00,Wunderground v.1.15,2013-03-12 07:10:00,
2013-03-12 02:15:00,29.0,26.2,29.83,SE,140,1.0,3.0,89,0.00,,,0.00,Wunderground v.1.15,2013-03-12 07:15:00,
2013-03-12 02:20:00,29.0,26.2,29.83,SE,137,0.0,1.0,89,0.00,,,0.00,Wunderground v.1.15,2013-03-12 07:20:00,
2013-03-12 02:26:00,29.0,25.9,29.83,East,93,0.0,2.0,88,0.00,,,0.00,Wunderground v.1.15,2013-03-12 07:26:00,
2013-03-12 02:31:00,29.0,25.9,29.83,SE,124,1.0,1.0,88,0.00,,,0.00,Wunderground v.1.15,2013-03-12 07:31:00,
2013-03-12 02:37:00,29.0,25.9,29.83,ESE,107,2.0,2.0,88,0.00,,,0.00,Wunderground v.1.15,2013-03-12 07:37:00,
2013-03-12 02:42:00,28.9,25.5,29.83,East,98,1.0,1.0,87,0.00,,,0.00,Wunderground v.1.15,2013-03-12 07:42:00,
2013-03-12 02:48:00,28.9,25.8,29.83,ESE,115,0.0,1.0,88,0.00,,,0.00,Wunderground v.1.15,2013-03-12 07:48:00,
2013-03-12 02:53:00,28.8,25.7,29.83,East,99,2.0,2.0,88,0.00,,,0.00,Wunderground v.1.15,2013-03-12 07:53:00,
2013-03-12 02:59:00,28.7,25.9,29.83,SSE,151,2.0,3.0,89,0.00,,,0.00,Wunderground v.1.15,2013-03-12 07:59:00,
2013-03-12 03:04:00,28.6,25.8,29.83,ESE,113,1.0,3.0,89,0.00,,,0.00,Wunderground v.1.15,2013-03-12 08:04:00,
2013-03-12 03:09:00,28.5,25.7,29.84,ESE,105,3.0,4.0,89,0.00,,,0.00,Wunderground v.1.15,2013-03-12 08:09:00,
2013-03-12 03:14:00,28.5,25.9,29.84,ENE,67,0.0,4.0,90,0.00,,,0.00,Wunderground v.1.15,2013-03-12 08:14:00,
2013-03-12 03:19:00,28.4,25.8,29.84,East,99,2.0,5.0,90,0.00,,,0.00,Wunderground v.1.15,2013-03-12 08:19:00,
2013-03-12 03:24:00,28.4,25.6,29.84,ESE,115,0.0,4.0,89,0.00,,,0.00,Wunderground v.1.15,2013-03-12 08:24:00,
2013-03-12 03:29:00,28.4,25.8,29.84,ESE,111,1.0,4.0,90,0.00,,,0.00,Wunderground v.1.15,2013-03-12 08:29:00,
2013-03-12 03:34:00,28.4,25.8,29.84,ESE,102,0.0,2.0,90,0.00,,,0.00,Wunderground v.1.15,2013-03-12 08:34:00,
2013-03-12 03:39:00,28.3,25.7,29.84,ESE,105,0.0,2.0,90,0.00,,,0.00,Wunderground v.1.15,2013-03-12 08:39:00,
2013-03-12 03:44:00,28.3,25.7,29.84,ESE,122,2.0,3.0,90,0.00,,,0.00,Wunderground v.1.15,2013-03-12 08:44:00,
2013-03-12 03:49:00,28.2,25.6,29.84,ESE,103,1.0,4.0,90,0.00,,,0.00,Wunderground v.1.15,2013-03-12 08:49:00,
2013-03-12 03:54:00,28.3,26.0,29.84,SSE,156,0.0,2.0,91,0.00,,,0.00,Wunderground v.1.15,2013-03-12 08:54:00,
2013-03-12 03:59:00,28.3,26.0,29.84,ESE,114,1.0,4.0,91,0.00,,,0.00,Wunderground v.1.15,2013-03-12 08:59:00,
2013-03-12 04:04:00,28.3,26.3,29.84,ENE,61,0.0,3.0,92,0.00,,,0.00,Wunderground v.1.15,2013-03-12 09:04:00,
2013-03-12 04:09:00,28.3,26.3,29.84,SW,218,2.0,3.0,92,0.00,,,0.00,Wunderground v.1.15,2013-03-12 09:09:00,
2013-03-12 04:14:00,28.3,26.3,29.84,NE,45,1.0,3.0,92,0.00,,,0.00,Wunderground v.1.15,2013-03-12 09:14:00,
2013-03-12 04:19:00,28.3,26.3,29.84,ESE,115,1.0,3.0,92,0.00,,,0.00,Wunderground v.1.15,2013-03-12 09:19:00,
2013-03-12 04:24:00,28.3,26.3,29.84,ESE,113,0.0,2.0,92,0.00,,,0.00,Wunderground v.1.15,2013-03-12 09:24:00,
2013-03-12 04:29:00,28.3,26.3,29.85,ESE,111,0.0,5.0,92,0.00,,,0.00,Wunderground v.1.15,2013-03-12 09:29:00,
2013-03-12 04:34:00,28.3,26.5,29.84,ESE,111,1.0,1.0,93,0.00,,,0.00,Wunderground v.1.15,2013-03-12 09:34:00,
2013-03-12 04:39:00,28.3,26.5,29.85,ESE,109,0.0,2.0,93,0.00,,,0.00,Wunderground v.1.15,2013-03-12 09:39:00,
2013-03-12 04:44:00,28.3,26.5,29.85,East,101,0.0,2.0,93,0.00,,,0.00,Wunderground v.1.15,2013-03-12 09:44:00,
2013-03-12 04:49:00,28.3,26.5,29.85,ESE,119,3.0,3.0,93,0.00,,,0.00,Wunderground v.1.15,2013-03-12 09:49:00,
2013-03-12 04:54:00,28.3,26.5,29.85,SE,124,0.0,3.0,93,0.00,,,0.00,Wunderground v.1.15,2013-03-12 09:54:00,
2013-03-12 04:59:00,28.3,26.3,29.85,NNW,345,2.0,3.0,92,0.00,,,0.00,Wunderground v.1.15,2013-03-12 09:59:00,
2013-03-12 05:04:00,28.2,26.2,29.86,NNW,343,3.0,4.0,92,0.00,,,0.00,Wunderground v.1.15,2013-03-12 10:04:00,
2013-03-12 05:09:00,28.2,26.2,29.86,ESE,122,0.0,7.0,92,0.00,,,0.00,Wunderground v.1.15,2013-03-12 10:09:00,
2013-03-12 05:14:00,28.2,26.2,29.85,SE,131,1.0,2.0,92,0.00,,,0.00,Wunderground v.1.15,2013-03-12 10:14:00,
2013-03-12 05:19:00,28.1,25.8,29.86,East,94,1.0,4.0,91,0.00,,,0.00,Wunderground v.1.15,2013-03-12 10:19:00,
2013-03-12 05:24:00,28.1,25.5,29.86,NNW,346,1.0,6.0,90,0.00,,,0.00,Wunderground v.1.15,2013-03-12 10:24:00,
2013-03-12 05:29:00,28.1,25.3,29.86,NNW,334,0.0,6.0,89,0.00,,,0.00,Wunderground v.1.15,2013-03-12 10:29:00,
2013-03-12 05:34:00,28.1,25.3,29.86,SE,124,1.0,6.0,89,0.00,,,0.00,Wunderground v.1.15,2013-03-12 10:34:00,
2013-03-12 05:40:00,28.1,25.3,29.86,NNW,337,0.0,6.0,89,0.00,,,0.00,Wunderground v.1.15,2013-03-12 10:40:00,
2013-03-12 05:45:00,28.1,25.3,29.86,ESE,112,2.0,5.0,89,0.00,,,0.00,Wunderground v.1.15,2013-03-12 10:45:00,
2013-03-12 05:50:00,28.1,25.0,29.86,SE,128,2.0,2.0,88,0.00,,,0.00,Wunderground v.1.15,2013-03-12 10:50:00,
2013-03-12 05:55:00,28.1,25.0,29.86,ENE,69,1.0,3.0,88,0.00,,,0.00,Wunderground v.1.15,2013-03-12 10:55:00,
2013-03-12 06:00:00,28.1,25.0,29.86,SE,128,2.0,2.0,88,0.00,,,0.00,Wunderground v.1.15,2013-03-12 11:00:00,
2013-03-12 06:05:00,28.1,24.7,29.87,East,83,1.0,4.0,87,0.00,,,0.00,Wunderground v.1.15,2013-03-12 11:05:00,
2013-03-12 06:10:00,28.1,24.7,29.87,NE,39,0.0,2.0,87,0.00,,,0.00,Wunderground v.1.15,2013-03-12 11:10:00,
2013-03-12 06:15:00,28.0,24.6,29.87,NNE,16,1.0,5.0,87,0.00,,,0.00,Wunderground v.1.15,2013-03-12 11:15:00,
2013-03-12 06:20:00,28.0,24.6,29.86,East,101,1.0,1.0,87,0.00,,,0.00,Wunderground v.1.15,2013-03-12 11:20:00,
2013-03-12 06:25:00,28.0,24.6,29.87,ESE,107,1.0,5.0,87,0.00,,,0.00,Wunderground v.1.15,2013-03-12 11:25:00,
2013-03-12 06:30:00,28.0,24.6,29.87,SE,124,0.0,1.0,87,0.00,,,0.00,Wunderground v.1.15,2013-03-12 11:30:00,
2013-03-12 06:35:00,27.9,24.3,29.87,ESE,117,3.0,5.0,86,0.00,,,0.00,Wunderground v.1.15,2013-03-12 11:35:00,
2013-03-12 06:40:00,27.9,24.3,29.87,ESE,112,2.0,3.0,86,0.00,,,0.00,Wunderground v.1.15,2013-03-12 11:40:00,
2013-03-12 06:45:00,27.8,24.2,29.87,South,172,2.0,4.0,86,0.00,,,0.00,Wunderground v.1.15,2013-03-12 11:45:00,
2013-03-12 06:50:00,27.8,23.9,29.87,East,100,4.0,4.0,85,0.00,,,0.00,Wunderground v.1.15,2013-03-12 11:50:00,
2013-03-12 06:55:00,27.6,23.7,29.87,East,99,2.0,5.0,85,0.00,,,0.00,Wunderground v.1.15,2013-03-12 11:55:00,
2013-03-12 07:00:00,27.6,23.7,29.87,West,262,0.0,3.0,85,0.00,,,0.00,Wunderground v.1.15,2013-03-12 12:00:00,
2013-03-12 07:05:00,27.5,23.6,29.87,South,174,0.0,5.0,85,0.00,,,0.00,Wunderground v.1.15,2013-03-12 12:05:00,
2013-03-12 07:10:00,27.4,23.5,29.87,East,87,1.0,2.0,85,0.00,,,0.00,Wunderground v.1.15,2013-03-12 12:10:00,
2013-03-12 07:15:00,27.2,23.3,29.87,ESE,106,3.0,6.0,85,0.00,,,0.00,Wunderground v.1.15,2013-03-12 12:15:00,
2013-03-12 07:20:00,27.1,23.2,29.86,East,90,1.0,2.0,85,0.00,,,0.00,Wunderground v.1.15,2013-03-12 12:20:00,
2013-03-12 07:25:00,27.0,23.1,29.87,North,355,2.0,5.0,85,0.00,,,0.00,Wunderground v.1.15,2013-03-12 12:25:00,
2013-03-12 07:30:00,26.8,22.6,29.87,ESE,114,0.0,2.0,84,0.00,,,0.00,Wunderground v.1.15,2013-03-12 12:30:00,
2013-03-12 07:35:00,26.8,22.9,29.87,NW,324,1.0,2.0,85,0.00,,,0.00,Wunderground v.1.15,2013-03-12 12:35:00,
2013-03-12 07:40:00,26.7,22.8,29.87,North,351,0.0,1.0,85,0.00,,,0.00,Wunderground v.1.15,2013-03-12 12:40:00,
2013-03-12 07:45:00,26.7,22.8,29.87,NNW,342,3.0,4.0,85,0.00,,,0.00,Wunderground v.1.15,2013-03-12 12:45:00,
2013-03-12 07:50:00,26.7,23.1,29.88,ENE,77,1.0,4.0,86,0.00,,,0.00,Wunderground v.1.15,2013-03-12 12:50:00,
2013-03-12 07:55:00,26.7,22.8,29.88,East,85,2.0,4.0,85,0.00,,,0.00,Wunderground v.1.15,2013-03-12 12:55:00,
2013-03-12 08:00:00,26.5,22.6,29.88,East,91,1.0,2.0,85,0.00,,,0.00,Wunderground v.1.15,2013-03-12 13:00:00,
2013-03-12 08:05:00,26.5,22.9,29.88,ESE,113,3.0,4.0,86,0.00,,,0.00,Wunderground v.1.15,2013-03-12 13:05:00,
2013-03-12 08:10:00,26.5,22.9,29.88,ESE,110,5.0,9.0,86,0.00,,,0.00,Wunderground v.1.15,2013-03-12 13:10:00,
2013-03-12 08:15:00,26.3,22.4,29.89,ESE,114,0.0,9.0,85,0.00,,,0.00,Wunderground v.1.15,2013-03-12 13:15:00,
2013-03-12 08:20:00,26.2,22.6,29.89,North,5,2.0,2.0,86,0.00,,,0.00,Wunderground v.1.15,2013-03-12 13:20:00,
2013-03-12 08:25:00,26.2,22.6,29.89,SE,128,0.0,4.0,86,0.00,,,0.00,Wunderground v.1.15,2013-03-12 13:25:00,
2013-03-12 08:30:00,26.4,22.8,29.89,SE,138,1.0,1.0,86,0.00,,,0.00,Wunderground v.1.15,2013-03-12 13:30:00,
2013-03-12 08:35:00,26.6,23.0,29.89,NNW,330,6.0,6.0,86,0.00,,,0.00,Wunderground v.1.15,2013-03-12 13:35:00,
2013-03-12 08:40:00,26.5,22.6,29.89,NNE,12,1.0,2.0,85,0.00,,,0.00,Wunderground v.1.15,2013-03-12 13:40:00,
2013-03-12 08:45:00,26.2,22.3,29.89,NW,314,2.0,6.0,85,0.00,,,0.00,Wunderground v.1.15,2013-03-12 13:45:00,
2013-03-12 08:50:00,26.1,21.9,29.89,North,349,4.0,6.0,84,0.00,,,0.00,Wunderground v.1.15,2013-03-12 13:50:00,
2013-03-12 08:55:00,25.9,21.7,29.90,SSE,161,3.0,6.0,84,0.00,,,0.00,Wunderground v.1.15,2013-03-12 13:55:00,
2013-03-12 09:00:00,25.9,21.7,29.90,East,90,4.0,4.0,84,0.00,,,0.00,Wunderground v.1.15,2013-03-12 14:00:00,
2013-03-12 09:05:00,26.2,22.0,29.90,ESE,122,2.0,5.0,84,0.00,,,0.00,Wunderground v.1.15,2013-03-12 14:05:00,
2013-03-12 09:11:00,26.5,22.3,29.89,ESE,123,1.0,4.0,84,0.00,,,0.00,Wunderground v.1.15,2013-03-12 14:11:00,
2013-03-12 09:16:00,26.7,22.2,29.89,East,101,3.0,4.0,83,0.00,,,0.00,Wunderground v.1.15,2013-03-12 14:16:00,
2013-03-12 09:21:00,26.8,22.3,29.89,SW,216,1.0,4.0,83,0.00,,,0.00,Wunderground v.1.15,2013-03-12 14:21:00,
2013-03-12 09:26:00,26.9,22.1,29.90,ESE,110,1.0,5.0,82,0.00,,,0.00,Wunderground v.1.15,2013-03-12 14:26:00,
2013-03-12 09:31:00,27.1,22.3,29.90,SSE,152,0.0,3.0,82,0.00,,,0.00,Wunderground v.1.15,2013-03-12 14:31:00,
2013-03-12 09:36:00,27.2,22.1,29.90,SSW,201,1.0,3.0,81,0.00,,,0.00,Wunderground v.1.15,2013-03-12 14:36:00,
2013-03-12 09:42:00,27.2,22.1,29.89,East,96,2.0,3.0,81,0.00,,,0.00,Wunderground v.1.15,2013-03-12 14:42:00,
2013-03-12 09:47:00,27.3,22.2,29.90,ENE,64,1.0,5.0,81,0.00,,,0.00,Wunderground v.1.15,2013-03-12 14:47:00,
2013-03-12 09:52:00,27.5,22.4,29.90,SSE,166,1.0,3.0,81,0.00,,,0.00,Wunderground v.1.15,2013-03-12 14:52:00,
2013-03-12 09:57:00,27.5,22.4,29.90,ESE,113,2.0,3.0,81,0.00,,,0.00,Wunderground v.1.15,2013-03-12 14:57:00,
2013-03-12 10:02:00,27.6,22.2,29.90,NNW,338,3.0,3.0,80,0.00,,,0.00,Wunderground v.1.15,2013-03-12 15:02:00,
2013-03-12 10:07:00,27.6,21.9,29.90,SSE,156,1.0,6.0,79,0.00,,,0.00,Wunderground v.1.15,2013-03-12 15:07:00,
2013-03-12 10:12:00,27.7,22.0,29.90,ESE,121,1.0,4.0,79,0.00,,,0.00,Wunderground v.1.15,2013-03-12 15:12:00,
2013-03-12 10:17:00,27.4,21.1,29.90,ESE,115,3.0,7.0,77,0.00,,,0.00,Wunderground v.1.15,2013-03-12 15:17:00,
2013-03-12 10:22:00,27.6,21.3,29.90,ESE,113,3.0,5.0,77,0.00,,,0.00,Wunderground v.1.15,2013-03-12 15:22:00,
2013-03-12 10:27:00,27.8,21.5,29.90,ESE,115,2.0,6.0,77,0.00,,,0.00,Wunderground v.1.15,2013-03-12 15:27:00,
2013-03-12 10:32:00,28.0,21.4,29.90,SSE,151,3.0,5.0,76,0.00,,,0.00,Wunderground v.1.15,2013-03-12 15:32:00,
2013-03-12 10:37:00,27.9,20.7,29.90,ESE,111,2.0,5.0,74,0.00,,,0.00,Wunderground v.1.15,2013-03-12 15:37:00,
2013-03-12 10:42:00,28.0,21.1,29.90,South,173,1.0,7.0,75,0.00,,,0.00,Wunderground v.1.15,2013-03-12 15:42:00,
2013-03-12 10:47:00,28.2,21.0,29.90,East,101,2.0,7.0,74,0.00,,,0.00,Wunderground v.1.15,2013-03-12 15:47:00,
2013-03-12 10:52:00,28.4,20.8,29.90,SSW,199,4.0,4.0,73,0.00,,,0.00,Wunderground v.1.15,2013-03-12 15:52:00,
2013-03-12 10:57:00,28.5,20.6,29.90,ESE,117,0.0,6.0,72,0.00,,,0.00,Wunderground v.1.15,2013-03-12 15:57:00,
2013-03-12 11:02:00,28.6,21.0,29.91,SE,131,3.0,3.0,73,0.00,,,0.00,Wunderground v.1.15,2013-03-12 16:02:00,
2013-03-12 11:07:00,28.8,21.2,29.90,ESE,118,5.0,6.0,73,0.00,,,0.00,Wunderground v.1.15,2013-03-12 16:07:00,
2013-03-12 11:13:00,28.7,21.1,29.90,East,89,1.0,5.0,73,0.00,,,0.00,Wunderground v.1.15,2013-03-12 16:13:00,
2013-03-12 11:18:00,28.9,21.3,29.90,NE,52,1.0,5.0,73,0.00,,,0.00,Wunderground v.1.15,2013-03-12 16:18:00,
2013-03-12 11:23:00,29.0,20.8,29.91,ESE,107,6.0,7.0,71,0.00,,,0.00,Wunderground v.1.15,2013-03-12 16:23:00,
2013-03-12 11:28:00,28.9,21.0,29.91,ESE,109,0.0,7.0,72,0.00,,,0.00,Wunderground v.1.15,2013-03-12 16:28:00,
2013-03-12 11:33:00,29.4,22.1,29.91,SSE,156,1.0,5.0,74,0.00,,,0.00,Wunderground v.1.15,2013-03-12 16:33:00,
2013-03-12 11:38:00,29.4,21.8,29.91,SSW,197,1.0,6.0,73,0.00,,,0.00,Wunderground v.1.15,2013-03-12 16:38:00,
2013-03-12 11:43:00,29.6,22.6,29.91,NNW,336,0.0,4.0,75,0.00,,,0.00,Wunderground v.1.15,2013-03-12 16:43:00,
2013-03-12 11:48:00,29.8,22.5,29.91,SE,141,9.0,9.0,74,0.00,,,0.00,Wunderground v.1.15,2013-03-12 16:48:00,
2013-03-12 11:53:00,29.5,22.2,29.91,SE,135,2.0,5.0,74,0.00,,,0.00,Wunderground v.1.15,2013-03-12 16:53:00,
2013-03-12 11:58:00,29.7,22.7,29.91,East,91,3.0,9.0,75,0.00,,,0.00,Wunderground v.1.15,2013-03-12 16:58:00,
2013-03-12 12:03:00,29.9,22.9,29.91,NNW,335,1.0,6.0,75,0.00,,,0.00,Wunderground v.1.15,2013-03-12 17:03:00,
2013-03-12 12:08:00,30.2,23.2,29.91,ESE,111,2.0,6.0,75,0.00,,,0.00,Wunderground v.1.15,2013-03-12 17:08:00,
2013-03-12 12:13:00,30.3,23.6,29.91,SE,130,2.0,6.0,76,0.00,,,0.00,Wunderground v.1.15,2013-03-12 17:13:00,
2013-03-12 12:18:00,30.5,23.5,29.91,ESE,114,5.0,6.0,75,0.00,,,0.00,Wunderground v.1.15,2013-03-12 17:18:00,
2013-03-12 12:23:00,30.5,23.8,29.91,SE,145,3.0,5.0,76,0.00,,,0.00,Wunderground v.1.15,2013-03-12 17:23:00,
2013-03-12 12:28:00,30.6,24.2,29.91,ESE,110,3.0,5.0,77,0.00,,,0.00,Wunderground v.1.15,2013-03-12 17:28:00,
2013-03-12 12:33:00,31.1,24.7,29.91,SE,139,5.0,9.0,77,0.00,,,0.00,Wunderground v.1.15,2013-03-12 17:33:00,
2013-03-12 12:38:00,31.3,24.3,29.91,ESE,110,3.0,11.0,75,0.00,,,0.00,Wunderground v.1.15,2013-03-12 17:38:00,
2013-03-12 12:43:00,31.4,24.7,29.91,East,100,2.0,4.0,76,0.00,,,0.01,Wunderground v.1.15,2013-03-12 17:43:00,
2013-03-12 12:48:00,31.6,24.9,29.91,East,87,1.0,4.0,76,0.00,,,0.01,Wunderground v.1.15,2013-03-12 17:48:00,
2013-03-12 12:53:00,32.1,25.4,29.91,SE,144,1.0,4.0,76,0.00,,,0.01,Wunderground v.1.15,2013-03-12 17:53:00,
2013-03-12 12:58:00,32.5,25.8,29.91,ESE,118,4.0,6.0,76,0.00,,,0.01,Wunderground v.1.15,2013-03-12 17:58:00,
2013-03-12 13:03:00,32.6,25.6,29.90,SE,138,4.0,6.0,75,0.00,,,0.01,Wunderground v.1.15,2013-03-12 18:03:00,
2013-03-12 13:08:00,33.0,25.6,29.90,East,94,1.0,6.0,74,0.00,,,0.01,Wunderground v.1.15,2013-03-12 18:08:00,
2013-03-12 13:13:00,32.9,25.5,29.90,SE,142,1.0,4.0,74,0.00,,,0.01,Wunderground v.1.15,2013-03-12 18:13:00,
2013-03-12 13:18:00,32.9,25.5,29.90,NW,322,0.0,4.0,74,0.00,,,0.02,Wunderground v.1.15,2013-03-12 18:18:00,
2013-03-12 13:23:00,33.0,25.3,29.90,ESE,107,3.0,5.0,73,0.00,,,0.02,Wunderground v.1.15,2013-03-12 18:23:00,
2013-03-12 13:29:00,32.7,25.3,29.90,ESE,120,3.0,6.0,74,0.00,,,0.02,Wunderground v.1.15,2013-03-12 18:29:00,
2013-03-12 13:34:00,33.1,25.4,29.90,SSE,152,4.0,6.0,73,0.00,,,0.02,Wunderground v.1.15,2013-03-12 18:34:00,
2013-03-12 13:39:00,33.3,25.6,29.90,SSE,166,1.0,6.0,73,0.00,,,0.02,Wunderground v.1.15,2013-03-12 18:39:00,
2013-03-12 13:44:00,33.3,25.6,29.90,NNW,337,1.0,5.0,73,0.00,,,0.02,Wunderground v.1.15,2013-03-12 18:44:00,
2013-03-12 13:49:00,33.2,26.1,29.90,ESE,113,2.0,5.0,75,0.00,,,0.02,Wunderground v.1.15,2013-03-12 18:49:00,
2013-03-12 13:54:00,32.9,25.5,29.89,ESE,110,1.0,5.0,74,0.00,,,0.02,Wunderground v.1.15,2013-03-12 18:54:00,
2013-03-12 13:59:00,32.3,25.3,29.89,ESE,114,3.0,6.0,75,0.00,,,0.02,Wunderground v.1.15,2013-03-12 18:59:00,
2013-03-12 14:04:00,31.9,25.8,29.89,SSE,166,4.0,5.0,78,0.00,,,0.02,Wunderground v.1.15,2013-03-12 19:04:00,
2013-03-12 14:09:00,31.5,25.7,29.89,East,100,1.0,5.0,79,0.00,,,0.02,Wunderground v.1.15,2013-03-12 19:09:00,
2013-03-12 14:14:00,31.5,26.6,29.89,North,353,2.0,3.0,82,0.00,,,0.02,Wunderground v.1.15,2013-03-12 19:14:00,
2013-03-12 14:19:00,31.4,26.5,29.89,ESE,120,3.0,4.0,82,0.00,,,0.02,Wunderground v.1.15,2013-03-12 19:19:00,
2013-03-12 14:24:00,31.2,26.3,29.89,ESE,111,3.0,5.0,82,0.00,,,0.02,Wunderground v.1.15,2013-03-12 19:24:00,
2013-03-12 14:29:00,31.2,26.6,29.89,East,95,2.0,5.0,83,0.00,,,0.02,Wunderground v.1.15,2013-03-12 19:29:00,
2013-03-12 14:34:00,31.4,26.8,29.89,SE,128,2.0,4.0,83,0.00,,,0.02,Wunderground v.1.15,2013-03-12 19:34:00,
2013-03-12 14:39:00,31.3,26.7,29.89,ESE,107,1.0,5.0,83,0.00,,,0.02,Wunderground v.1.15,2013-03-12 19:39:00,
2013-03-12 14:44:00,31.4,27.1,29.89,ESE,112,2.0,3.0,84,0.00,,,0.02,Wunderground v.1.15,2013-03-12 19:44:00,
2013-03-12 14:49:00,31.5,26.9,29.89,ESE,113,0.0,5.0,83,0.00,,,0.02,Wunderground v.1.15,2013-03-12 19:49:00,
2013-03-12 14:54:00,31.7,26.8,29.89,SE,132,1.0,6.0,82,0.00,,,0.02,Wunderground v.1.15,2013-03-12 19:54:00,
2013-03-12 14:59:00,31.9,27.3,29.89,SSE,156,2.0,6.0,83,0.00,,,0.02,Wunderground v.1.15,2013-03-12 19:59:00,
2013-03-12 15:04:00,32.3,27.1,29.89,ESE,104,0.0,4.0,81,0.00,,,0.02,Wunderground v.1.15,2013-03-12 20:04:00,
2013-03-12 15:09:00,32.7,27.5,29.88,ESE,116,2.0,6.0,81,0.00,,,0.02,Wunderground v.1.15,2013-03-12 20:09:00,
2013-03-12 15:14:00,32.9,27.1,29.89,SE,124,3.0,6.0,79,0.00,,,0.02,Wunderground v.1.15,2013-03-12 20:14:00,
2013-03-12 15:19:00,33.2,27.4,29.89,North,11,0.0,6.0,79,0.00,,,0.02,Wunderground v.1.15,2013-03-12 20:19:00,
2013-03-12 15:24:00,32.8,27.0,29.89,NE,39,1.0,4.0,79,0.00,,,0.02,Wunderground v.1.15,2013-03-12 20:24:00,
2013-03-12 15:29:00,32.5,27.0,29.89,ESE,111,3.0,5.0,80,0.00,,,0.02,Wunderground v.1.15,2013-03-12 20:29:00,
2013-03-12 15:34:00,32.0,26.5,29.89,ESE,122,2.0,6.0,80,0.00,,,0.02,Wunderground v.1.15,2013-03-12 20:34:00,
2013-03-12 15:39:00,31.6,26.1,29.89,SE,133,1.0,9.0,80,0.00,,,0.02,Wunderground v.1.15,2013-03-12 20:39:00,
2013-03-12 15:44:00,31.4,25.6,29.89,East,82,1.0,9.0,79,0.00,,,0.02,Wunderground v.1.15,2013-03-12 20:44:00,
2013-03-12 15:49:00,31.4,25.6,29.90,ESE,116,2.0,9.0,79,0.00,,,0.02,Wunderground v.1.15,2013-03-12 20:49:00,
2013-03-12 15:55:00,31.4,25.3,29.89,ESE,114,2.0,6.0,78,0.00,,,0.02,Wunderground v.1.15,2013-03-12 20:55:00,
2013-03-12 16:00:00,31.7,25.6,29.90,ESE,116,3.0,3.0,78,0.00,,,0.02,Wunderground v.1.15,2013-03-12 21:00:00,
2013-03-12 16:05:00,32.1,26.3,29.90,East,96,1.0,4.0,79,0.00,,,0.02,Wunderground v.1.15,2013-03-12 21:05:00,
2013-03-12 16:10:00,32.1,26.3,29.90,ESE,116,2.0,2.0,79,0.00,,,0.02,Wunderground v.1.15,2013-03-12 21:10:00,
2013-03-12 16:15:00,31.4,26.2,29.90,SE,129,2.0,9.0,81,0.00,,,0.02,Wunderground v.1.15,2013-03-12 21:15:00,
2013-03-12 16:20:00,30.9,26.6,29.90,SE,127,2.0,3.0,84,0.00,,,0.02,Wunderground v.1.15,2013-03-12 21:20:00,
2013-03-12 16:25:00,30.6,26.9,29.91,SE,145,4.0,4.0,86,0.00,,,0.02,Wunderground v.1.15,2013-03-12 21:25:00,
2013-03-12 16:30:00,30.4,26.4,29.91,SE,129,0.0,2.0,85,0.00,,,0.02,Wunderground v.1.15,2013-03-12 21:30:00,
2013-03-12 16:35:00,30.3,26.6,29.91,SE,139,2.0,5.0,86,0.00,,,0.02,Wunderground v.1.15,2013-03-12 21:35:00,
2013-03-12 16:40:00,30.3,26.6,29.91,SE,126,1.0,2.0,86,0.00,,,0.02,Wunderground v.1.15,2013-03-12 21:40:00,
2013-03-12 16:45:00,30.2,26.2,29.91,SE,141,2.0,6.0,85,0.00,,,0.02,Wunderground v.1.15,2013-03-12 21:45:00,
2013-03-12 16:50:00,29.9,25.9,29.91,SE,124,3.0,3.0,85,0.00,,,0.02,Wunderground v.1.15,2013-03-12 21:50:00,
2013-03-12 16:55:00,29.7,25.2,29.91,ESE,105,3.0,7.0,83,0.00,,,0.02,Wunderground v.1.15,2013-03-12 21:55:00,
2013-03-12 17:00:00,29.7,25.2,29.92,SE,142,1.0,3.0,83,0.00,,,0.02,Wunderground v.1.15,2013-03-12 22:00:00,
2013-03-12 17:05:00,29.9,25.4,29.92,East,98,2.0,3.0,83,0.00,,,0.02,Wunderground v.1.15,2013-03-12 22:05:00,
2013-03-12 17:10:00,30.1,25.3,29.92,SE,143,1.0,2.0,82,0.00,,,0.02,Wunderground v.1.15,2013-03-12 22:10:00,
2013-03-12 17:15:00,30.2,25.7,29.92,ESE,102,1.0,2.0,83,0.00,,,0.02,Wunderground v.1.15,2013-03-12 22:15:00,
2013-03-12 17:20:00,30.5,25.7,29.92,SE,126,3.0,3.0,82,0.00,,,0.02,Wunderground v.1.15,2013-03-12 22:20:00,
2013-03-12 17:25:00,30.7,25.0,29.92,ESE,118,2.0,4.0,79,0.00,,,0.02,Wunderground v.1.15,2013-03-12 22:25:00,
2013-03-12 17:30:00,30.7,24.7,29.92,ESE,108,0.0,2.0,78,0.00,,,0.02,Wunderground v.1.15,2013-03-12 22:30:00,
2013-03-12 17:35:00,30.7,24.7,29.92,SE,139,0.0,3.0,78,0.00,,,0.02,Wunderground v.1.15,2013-03-12 22:35:00,
2013-03-12 17:40:00,30.8,24.4,29.93,ESE,120,5.0,7.0,77,0.00,,,0.02,Wunderground v.1.15,2013-03-12 22:40:00,
2013-03-12 17:45:00,30.4,24.7,29.93,ESE,108,5.0,7.0,79,0.00,,,0.02,Wunderground v.1.15,2013-03-12 22:45:00,
2013-03-12 17:50:00,29.9,24.5,29.93,SSE,156,2.0,7.0,80,0.00,,,0.02,Wunderground v.1.15,2013-03-12 22:50:00,
2013-03-12 17:55:00,29.7,24.3,29.94,SE,138,2.0,7.0,80,0.00,,,0.02,Wunderground v.1.15,2013-03-12 22:55:00,
2013-03-12 18:00:00,29.5,24.4,29.94,East,99,3.0,4.0,81,0.00,,,0.02,Wunderground v.1.15,2013-03-12 23:00:00,
2013-03-12 18:05:00,29.3,24.2,29.94,ESE,122,1.0,7.0,81,0.00,,,0.02,Wunderground v.1.15,2013-03-12 23:05:00,
2013-03-12 18:10:00,29.2,23.8,29.94,ESE,108,2.0,5.0,80,0.00,,,0.02,Wunderground v.1.15,2013-03-12 23:10:00,
2013-03-12 18:15:00,28.8,23.7,29.94,ESE,110,5.0,9.0,81,0.00,,,0.02,Wunderground v.1.15,2013-03-12 23:15:00,
2013-03-12 18:20:00,28.5,23.4,29.95,SE,128,2.0,4.0,81,0.00,,,0.02,Wunderground v.1.15,2013-03-12 23:20:00,
2013-03-12 18:25:00,28.5,23.4,29.95,SSE,156,0.0,6.0,81,0.00,,,0.02,Wunderground v.1.15,2013-03-12 23:25:00,
2013-03-12 18:30:00,28.5,23.4,29.95,SE,141,0.0,2.0,81,0.00,,,0.02,Wunderground v.1.15,2013-03-12 23:30:00,
2013-03-12 18:36:00,28.5,23.7,29.95,East,98,4.0,4.0,82,0.00,,,0.02,Wunderground v.1.15,2013-03-12 23:36:00,
2013-03-12 18:41:00,28.5,23.7,29.95,ESE,119,3.0,3.0,82,0.00,,,0.02,Wunderground v.1.15,2013-03-12 23:41:00,
2013-03-12 18:46:00,28.5,24.0,29.95,ESE,114,3.0,4.0,83,0.00,,,0.02,Wunderground v.1.15,2013-03-12 23:46:00,
2013-03-12 18:51:00,28.7,24.5,29.96,ESE,108,3.0,4.0,84,0.00,,,0.02,Wunderground v.1.15,2013-03-12 23:51:00,
2013-03-12 18:56:00,28.7,25.0,29.96,ESE,119,0.0,4.0,86,0.00,,,0.02,Wunderground v.1.15,2013-03-12 23:56:00,
2013-03-12 19:01:00,28.6,25.2,29.96,ESE,118,0.0,2.0,87,0.00,,,0.02,Wunderground v.1.15,2013-03-13 00:01:00,
2013-03-12 19:06:00,28.4,24.7,29.97,SE,137,1.0,2.0,86,0.00,,,0.02,Wunderground v.1.15,2013-03-13 00:06:00,
2013-03-12 19:11:00,28.0,24.6,29.97,ESE,123,0.0,3.0,87,0.00,,,0.02,Wunderground v.1.15,2013-03-13 00:11:00,
2013-03-12 19:16:00,27.5,24.4,29.97,East,82,3.0,3.0,88,0.00,,,0.02,Wunderground v.1.15,2013-03-13 00:16:00,
2013-03-12 19:21:00,27.2,24.7,29.97,ESE,110,1.0,2.0,90,0.00,,,0.02,Wunderground v.1.15,2013-03-13 00:21:00,
2013-03-12 19:25:00,27.0,24.7,29.97,ESE,114,0.0,3.0,91,0.00,,,0.02,Wunderground v.1.15,2013-03-13 00:25:00,
2013-03-12 19:30:00,27.0,24.7,29.97,ESE,103,1.0,3.0,91,0.00,,,0.02,Wunderground v.1.15,2013-03-13 00:30:00,
2013-03-12 19:36:00,27.0,24.5,29.98,East,101,1.0,3.0,90,0.00,,,0.02,Wunderground v.1.15,2013-03-13 00:36:00,
2013-03-12 19:41:00,27.1,24.6,29.98,SE,137,4.0,4.0,90,0.00,,,0.02,Wunderground v.1.15,2013-03-13 00:41:00,
2013-03-12 19:46:00,27.2,24.4,29.98,SE,128,1.0,7.0,89,0.00,,,0.02,Wunderground v.1.15,2013-03-13 00:46:00,
2013-03-12 19:51:00,26.9,24.4,29.98,SE,138,2.0,5.0,90,0.00,,,0.02,Wunderground v.1.15,2013-03-13 00:51:00,
2013-03-12 19:56:00,26.7,24.4,29.99,SE,128,0.0,6.0,91,0.00,,,0.02,Wunderground v.1.15,2013-03-13 00:56:00,
2013-03-12 20:02:00,26.8,24.5,29.99,ESE,121,0.0,5.0,91,0.00,,,0.02,Wunderground v.1.15,2013-03-13 01:02:00,
2013-03-12 20:07:00,26.8,24.3,29.99,East,97,2.0,5.0,90,0.00,,,0.02,Wunderground v.1.15,2013-03-13 01:07:00,
2013-03-12 20:12:00,26.7,23.9,29.99,ESE,118,4.0,4.0,89,0.00,,,0.02,Wunderground v.1.15,2013-03-13 01:12:00,
2013-03-12 20:17:00,26.7,23.9,29.99,ESE,120,1.0,5.0,89,0.00,,,0.02,Wunderground v.1.15,2013-03-13 01:17:00,
2013-03-12 20:22:00,26.7,23.9,30.00,ESE,116,2.0,3.0,89,0.00,,,0.02,Wunderground v.1.15,2013-03-13 01:22:00,
2013-03-12 20:27:00,26.7,23.6,30.00,SE,129,1.0,5.0,88,0.00,,,0.02,Wunderground v.1.15,2013-03-13 01:27:00,
2013-03-12 20:32:00,26.8,23.7,30.00,ESE,104,2.0,3.0,88,0.00,,,0.02,Wunderground v.1.15,2013-03-13 01:32:00,
2013-03-12 20:37:00,26.7,23.9,30.00,SE,130,1.0,3.0,89,0.00,,,0.02,Wunderground v.1.15,2013-03-13 01:37:00,
2013-03-12 20:42:00,26.7,23.6,30.00,ESE,120,1.0,4.0,88,0.00,,,0.02,Wunderground v.1.15,2013-03-13 01:42:00,
2013-03-12 20:47:00,26.6,23.5,30.01,ESE,123,2.0,6.0,88,0.00,,,0.02,Wunderground v.1.15,2013-03-13 01:47:00,
2013-03-12 20:52:00,26.6,23.5,30.00,ESE,105,3.0,5.0,88,0.00,,,0.02,Wunderground v.1.15,2013-03-13 01:52:00,
2013-03-12 20:57:00,26.5,23.2,30.01,East,97,4.0,5.0,87,0.00,,,0.02,Wunderground v.1.15,2013-03-13 01:57:00,
2013-03-12 21:02:00,26.5,23.2,30.01,East,95,2.0,5.0,87,0.00,,,0.02,Wunderground v.1.15,2013-03-13 02:02:00,
2013-03-12 21:07:00,26.4,23.1,30.01,ESE,116,2.0,6.0,87,0.00,,,0.02,Wunderground v.1.15,2013-03-13 02:07:00,
2013-03-12 21:12:00,26.4,22.5,30.01,ESE,120,2.0,6.0,85,0.00,,,0.02,Wunderground v.1.15,2013-03-13 02:12:00,
2013-03-12 21:17:00,26.4,22.8,30.01,ESE,107,0.0,6.0,86,0.00,,,0.02,Wunderground v.1.15,2013-03-13 02:17:00,
2013-03-12 21:23:00,26.4,23.1,30.01,ESE,120,1.0,3.0,87,0.00,,,0.02,Wunderground v.1.15,2013-03-13 02:23:00,
2013-03-12 21:28:00,26.2,22.9,30.01,ESE,114,0.0,4.0,87,0.00,,,0.02,Wunderground v.1.15,2013-03-13 02:28:00,
2013-03-12 21:33:00,26.1,22.8,30.01,ESE,120,2.0,4.0,87,0.00,,,0.02,Wunderground v.1.15,2013-03-13 02:33:00,
2013-03-12 21:38:00,26.0,22.7,30.02,SE,137,2.0,4.0,87,0.00,,,0.02,Wunderground v.1.15,2013-03-13 02:38:00,
2013-03-12 21:43:00,26.0,22.4,30.02,East,92,3.0,4.0,86,0.00,,,0.02,Wunderground v.1.15,2013-03-13 02:43:00,
2013-03-12 21:48:00,26.0,22.4,30.02,SE,137,1.0,4.0,86,0.00,,,0.02,Wunderground v.1.15,2013-03-13 02:48:00,
2013-03-12 21:53:00,26.0,22.1,30.02,ESE,116,3.0,4.0,85,0.00,,,0.02,Wunderground v.1.15,2013-03-13 02:53:00,
2013-03-12 21:58:00,26.0,22.1,30.02,ESE,118,3.0,4.0,85,0.00,,,0.02,Wunderground v.1.15,2013-03-13 02:58:00,
2013-03-12 22:03:00,26.0,21.8,30.02,East,80,2.0,4.0,84,0.00,,,0.02,Wunderground v.1.15,2013-03-13 03:03:00,
2013-03-12 22:08:00,25.9,21.7,30.02,ESE,104,3.0,4.0,84,0.00,,,0.02,Wunderground v.1.15,2013-03-13 03:08:00,
2013-03-12 22:13:00,25.8,21.6,30.02,ESE,104,3.0,5.0,84,0.00,,,0.02,Wunderground v.1.15,2013-03-13 03:13:00,
2013-03-12 22:18:00,25.8,21.3,30.02,ESE,116,2.0,5.0,83,0.00,,,0.02,Wunderground v.1.15,2013-03-13 03:18:00,
2013-03-12 22:23:00,25.7,21.5,30.03,SSE,147,1.0,3.0,84,0.00,,,0.02,Wunderground v.1.15,2013-03-13 03:23:00,
2013-03-12 22:28:00,25.6,21.2,30.03,ESE,117,2.0,4.0,83,0.00,,,0.02,Wunderground v.1.15,2013-03-13 03:28:00,
2013-03-12 22:33:00,25.6,21.2,30.03,East,99,2.0,4.0,83,0.00,,,0.02,Wunderground v.1.15,2013-03-13 03:33:00,
2013-03-12 22:38:00,25.7,21.3,30.03,ESE,116,1.0,4.0,83,0.00,,,0.02,Wunderground v.1.15,2013-03-13 03:38:00,
2013-03-12 22:43:00,25.7,21.0,30.03,ESE,113,3.0,5.0,82,0.00,,,0.02,Wunderground v.1.15,2013-03-13 03:43:00,
2013-03-12 22:48:00,25.8,21.1,30.03,ESE,104,1.0,5.0,82,0.00,,,0.02,Wunderground v.1.15,2013-03-13 03:48:00,
2013-03-12 22:53:00,25.9,20.9,30.03,South,183,1.0,5.0,81,0.00,,,0.02,Wunderground v.1.15,2013-03-13 03:53:00,
2013-03-12 22:59:00,26.0,20.7,30.03,ESE,122,1.0,5.0,80,0.00,,,0.02,Wunderground v.1.15,2013-03-13 03:59:00,
2013-03-12 23:00:00,26.0,20.7,30.03,ESE,117,3.0,3.0,80,0.00,,,0.02,Wunderground v.1.15,2013-03-13 04:00:00,
2013-03-12 23:05:00,26.0,20.4,30.04,East,95,0.0,6.0,79,0.00,,,0.02,Wunderground v.1.15,2013-03-13 04:05:00,
2013-03-12 23:10:00,26.0,20.4,30.04,SE,135,0.0,2.0,79,0.00,,,0.02,Wunderground v.1.15,2013-03-13 04:10:00,
2013-03-12 23:15:00,26.1,20.5,30.04,SE,140,0.0,4.0,79,0.00,,,0.02,Wunderground v.1.15,2013-03-13 04:15:00,
2013-03-12 23:20:00,26.1,20.2,30.04,East,91,2.0,2.0,78,0.00,,,0.02,Wunderground v.1.15,2013-03-13 04:20:00,
2013-03-12 23:25:00,26.1,20.5,30.04,ESE,109,4.0,5.0,79,0.00,,,0.02,Wunderground v.1.15,2013-03-13 04:25:00,
2013-03-12 23:30:00,26.1,20.2,30.05,ESE,102,3.0,3.0,78,0.00,,,0.02,Wunderground v.1.15,2013-03-13 04:30:00,
2013-03-12 23:35:00,26.1,20.2,30.05,ESE,105,2.0,5.0,78,0.00,,,0.02,Wunderground v.1.15,2013-03-13 04:35:00,
2013-03-12 23:40:00,26.1,19.9,30.05,ESE,107,5.0,5.0,77,0.00,,,0.02,Wunderground v.1.15,2013-03-13 04:40:00,
2013-03-12 23:45:00,26.1,19.6,30.05,ESE,110,1.0,5.0,76,0.00,,,0.02,Wunderground v.1.15,2013-03-13 04:45:00,
2013-03-12 23:50:00,26.2,19.4,30.05,SE,124,0.0,3.0,75,0.00,,,0.02,Wunderground v.1.15,2013-03-13 04:50:00,
2013-03-12 23:55:00,26.2,19.4,30.06,SE,145,1.0,3.0,75,0.00,,,0.02,Wunderground v.1.15,2013-03-13 04:55:00,